San Angelo, TX

3:29 AM CDT on May 22, 2018 (GMT -0500)
San Angelo Regional-Mathis

Weather History for KSJT - September, 2013

Change the Weather History Date:

Wednesday, September 4, 2013

  Actual Average Record
Temperature  
Mean Temperature 84 °F 79 °F  
Max Temperature 99 °F 91 °F 105 °F (2000)
Min Temperature 69 °F 67 °F 53 °F (1915)
Degree Days  
Heating Degree Days 0 0  
Month to date heating degree days 0 0  
Since 1 July heating degree days 0 0  
Cooling Degree Days 19 14  
Month to date cooling degree days 76 59  
Year to date cooling degree days 2402 2095  
Growing Degree Days 34 (Base 50)    
Moisture  
Dew Point 56 °F    
Average Humidity 48    
Maximum Humidity 78    
Minimum Humidity 18    
Precipitation  
Precipitation 0.00 in 0.10 in 2.64 in (1961)
Month to date precipitation 0.13 0.36  
Year to date precipitation 11.89 14.43  
Sea Level Pressure  
Sea Level Pressure 29.98 in    
Wind  
Wind Speed 5 mph (SE)    
Max Wind Speed 17 mph    
Max Gust Speed 22 mph    
Visibility 10 miles    
Events      
T = Trace of Precipitation, MM = Missing Value Source: NWS Daily Summary

Daily Weather History Graph

Daily Weather History Graph

Search for Another Location

Airport or City:

Astronomy

Sep. 04, 2013 Rise Set
Actual Time 7:19 AM CDT 8:01 PM CDT
Civil Twilight 6:55 AM CDT 8:26 PM CDT
Nautical Twilight 6:26 AM CDT 8:54 PM CDT
Astronomical Twilight 5:56 AM CDT 9:24 PM CDT
Moon 6:33 AM CDT (9/4) 7:24 PM CDT (9/4)
Length of Visible Light 13h 30m
Length of Day
12h 41m
Waning Crescent, 1% of the Moon is Illuminated
Sep 4
Waning Crescent
Sep 5
New
Sep 12
First Quarter
Sep 19
Full
Sep 26
Last Quarter

Hourly Weather History & Observations

Time (CDT) Temp. Heat Index Dew Point Humidity Pressure Visibility Wind Dir Wind Speed Gust Speed Precip Events Conditions
12:51 AM 77.0 °F - 63.0 °F 62% 29.95 in 10.0 mi Calm Calm - N/A   Clear
1:51 AM 73.9 °F - 62.1 °F 66% 29.95 in 10.0 mi West 3.5 mph - N/A   Clear
2:51 AM 75.9 °F - 62.1 °F 62% 29.96 in 10.0 mi WSW 3.5 mph - N/A   Clear
3:51 AM 75.0 °F - 62.1 °F 64% 29.96 in 10.0 mi Calm Calm - N/A   Clear
4:51 AM 73.0 °F - 61.0 °F 66% 29.98 in 10.0 mi SSW 3.5 mph - N/A   Clear
5:51 AM 71.1 °F - 62.1 °F 73% 29.99 in 10.0 mi Calm Calm - N/A   Mostly Cloudy
6:51 AM 71.1 °F - 62.1 °F 73% 29.99 in 10.0 mi Calm Calm - N/A   Clear
7:51 AM 70.0 °F - 62.1 °F 76% 30.01 in 10.0 mi SW 3.5 mph - N/A   Clear
8:51 AM 75.9 °F - 61.0 °F 60% 30.02 in 10.0 mi Calm Calm - N/A   Clear
9:51 AM 81.0 °F 81.6 °F 60.1 °F 49% 30.04 in 10.0 mi Calm Calm - N/A   Clear
10:51 AM 87.1 °F 86.7 °F 60.1 °F 40% 30.04 in 10.0 mi Calm Calm - N/A   Clear
11:51 AM 91.0 °F 90.9 °F 61.0 °F 36% 30.04 in 10.0 mi Variable 3.5 mph - N/A   Clear
12:51 PM 93.9 °F 92.2 °F 55.9 °F 28% 30.01 in 10.0 mi Variable 3.5 mph - N/A   Clear
1:51 PM 96.1 °F - 51.1 °F 22% 30.00 in 10.0 mi North 6.9 mph 18.4 mph N/A   Clear
2:51 PM 98.1 °F - 52.0 °F 21% 29.98 in 10.0 mi ENE 13.8 mph 19.6 mph N/A   Clear
3:51 PM 98.1 °F - 52.0 °F 21% 29.95 in 10.0 mi East 10.4 mph 17.3 mph N/A   Scattered Clouds
4:51 PM 98.1 °F - 48.9 °F 19% 29.93 in 10.0 mi SE 9.2 mph 19.6 mph N/A   Partly Cloudy
5:51 PM 98.1 °F - 48.9 °F 19% 29.93 in 10.0 mi ENE 11.5 mph 19.6 mph N/A   Scattered Clouds
6:51 PM 96.1 °F - 46.9 °F 19% 29.94 in 10.0 mi East 9.2 mph 18.4 mph N/A   Clear
7:51 PM 91.9 °F - 45.0 °F 20% 29.95 in 10.0 mi ESE 9.2 mph - N/A   Clear
8:51 PM 86.0 °F - 46.9 °F 26% 29.96 in 10.0 mi East 5.8 mph - N/A   Clear
9:51 PM 82.0 °F - 48.0 °F 30% 29.98 in 10.0 mi ESE 4.6 mph - N/A   Clear
10:51 PM 80.1 °F - 50.0 °F 35% 30.01 in 10.0 mi SE 8.1 mph - N/A   Clear
11:51 PM 80.1 °F 80.2 °F 55.9 °F 43% 30.01 in 10.0 mi SSW 8.1 mph - N/A   Clear